TimeCDT,TemperatureF,Dew PointF,Humidity,Sea Level PressureIn,VisibilityMPH,Wind Direction,Wind SpeedMPH,Gust SpeedMPH,PrecipitationIn,Events,Conditions,WindDirDegrees,DateUTC
12:13 AM,35.6,28.4,75,29.93,10.0,West,6.9,-,N/A,,Clear,270,2012-10-15 05:13:00
12:52 AM,35.6,28.4,75,29.93,10.0,West,8.1,-,N/A,,Clear,270,2012-10-15 05:52:00
1:13 AM,35.6,30.2,81,29.93,10.0,WNW,8.1,-,N/A,,Clear,290,2012-10-15 06:13:00
1:32 AM,33.8,28.4,81,29.93,10.0,WNW,5.8,-,N/A,,Clear,290,2012-10-15 06:32:00
1:52 AM,35.6,30.2,81,29.94,10.0,West,3.5,-,N/A,,Clear,270,2012-10-15 06:52:00
2:13 AM,33.8,28.4,81,29.94,10.0,West,5.8,-,N/A,,Clear,270,2012-10-15 07:13:00
2:52 AM,32.0,28.4,87,29.94,10.0,West,3.5,-,N/A,,Clear,280,2012-10-15 07:52:00
3:13 AM,33.8,30.2,87,29.94,10.0,Calm,Calm,-,N/A,,Clear,0,2012-10-15 08:13:00
3:32 AM,35.6,30.2,81,29.94,10.0,Calm,Calm,-,N/A,,Clear,0,2012-10-15 08:32:00
3:52 AM,33.8,30.2,87,29.94,10.0,Calm,Calm,-,N/A,,Clear,0,2012-10-15 08:52:00
4:13 AM,30.2,26.6,86,29.94,10.0,WSW,4.6,-,N/A,,Clear,250,2012-10-15 09:13:00
4:53 AM,30.2,28.4,93,29.94,10.0,Calm,Calm,-,N/A,,Clear,0,2012-10-15 09:53:00
5:12 AM,30.2,28.4,93,29.94,10.0,Calm,Calm,-,N/A,,Clear,0,2012-10-15 10:12:00
5:32 AM,30.2,28.4,93,29.94,10.0,Calm,Calm,-,N/A,,Clear,0,2012-10-15 10:32:00
5:53 AM,30.2,28.4,93,29.93,10.0,Calm,Calm,-,N/A,,Clear,0,2012-10-15 10:53:00
6:12 AM,30.2,28.4,93,29.94,10.0,WSW,3.5,-,N/A,,Clear,240,2012-10-15 11:12:00
6:33 AM,30.2,26.6,86,29.94,10.0,Calm,Calm,-,N/A,,Clear,0,2012-10-15 11:33:00
6:53 AM,30.2,28.4,93,29.94,10.0,Calm,Calm,-,N/A,,Clear,0,2012-10-15 11:53:00
7:12 AM,30.2,28.4,93,29.94,10.0,Calm,Calm,-,N/A,,Clear,0,2012-10-15 12:12:00
7:33 AM,28.4,24.8,86,29.94,10.0,Calm,Calm,-,N/A,,Clear,0,2012-10-15 12:33:00
7:53 AM,28.4,26.6,93,29.95,10.0,Calm,Calm,-,N/A,,Clear,0,2012-10-15 12:53:00
8:12 AM,28.4,26.6,93,29.95,10.0,Calm,Calm,-,N/A,,Clear,0,2012-10-15 13:12:00
8:33 AM,30.2,28.4,93,29.95,10.0,Calm,Calm,-,N/A,,Clear,0,2012-10-15 13:33:00
8:53 AM,35.6,32.0,87,29.95,10.0,Calm,Calm,-,N/A,,Clear,0,2012-10-15 13:53:00
9:12 AM,39.2,33.8,81,29.95,10.0,Calm,Calm,-,N/A,,Clear,0,2012-10-15 14:12:00
9:33 AM,44.6,35.6,71,29.95,10.0,Calm,Calm,-,N/A,,Clear,0,2012-10-15 14:33:00
9:53 AM,48.2,37.4,66,29.95,10.0,Calm,Calm,-,N/A,,Clear,0,2012-10-15 14:53:00
10:12 AM,51.8,37.4,58,29.96,10.0,SSW,3.5,-,N/A,,Clear,210,2012-10-15 15:12:00
10:33 AM,53.6,37.4,54,29.95,10.0,South,3.5,-,N/A,,Clear,180,2012-10-15 15:33:00
10:52 AM,55.4,35.6,47,29.94,10.0,SSE,5.8,-,N/A,,Clear,160,2012-10-15 15:52:00
11:12 AM,55.4,35.6,47,29.94,10.0,South,5.8,-,N/A,,Clear,180,2012-10-15 16:12:00
11:52 AM,60.8,35.6,39,29.94,10.0,South,4.6,-,N/A,,Clear,170,2012-10-15 16:52:00
12:12 PM,62.6,35.6,37,29.93,10.0,South,6.9,-,N/A,,Clear,180,2012-10-15 17:12:00
12:33 PM,62.6,35.6,37,29.92,10.0,SSE,4.6,-,N/A,,Clear,160,2012-10-15 17:33:00
1:12 PM,64.4,33.8,32,29.90,10.0,SSE,9.2,-,N/A,,Clear,160,2012-10-15 18:12:00
1:33 PM,64.4,33.8,32,29.89,10.0,SSE,5.8,-,N/A,,Clear,150,2012-10-15 18:33:00
1:52 PM,64.4,33.8,32,29.87,10.0,South,9.2,-,N/A,,Clear,170,2012-10-15 18:52:00
2:12 PM,66.2,33.8,30,29.86,10.0,SSE,6.9,-,N/A,,Clear,160,2012-10-15 19:12:00
2:33 PM,66.2,35.6,32,29.85,10.0,South,8.1,-,N/A,,Clear,180,2012-10-15 19:33:00
2:52 PM,66.2,35.6,32,29.85,7.0,South,9.2,-,N/A,,Clear,170,2012-10-15 19:52:00
3:12 PM,66.2,33.8,30,29.84,10.0,South,11.5,-,N/A,,Clear,170,2012-10-15 20:12:00
3:32 PM,66.2,35.6,32,29.84,10.0,South,9.2,-,N/A,,Clear,170,2012-10-15 20:32:00
3:52 PM,68.0,33.8,28,29.83,10.0,South,10.4,-,N/A,,Clear,170,2012-10-15 20:52:00
4:13 PM,66.2,33.8,30,29.82,10.0,South,10.4,16.1,N/A,,Clear,170,2012-10-15 21:13:00
4:32 PM,66.2,35.6,32,29.82,10.0,South,11.5,-,N/A,,Clear,170,2012-10-15 21:32:00
4:53 PM,66.2,35.6,32,29.81,10.0,South,10.4,-,N/A,,Clear,170,2012-10-15 21:53:00
5:13 PM,66.2,35.6,32,29.81,10.0,SSE,10.4,-,N/A,,Clear,160,2012-10-15 22:13:00
5:32 PM,64.4,35.6,34,29.80,10.0,SSE,11.5,-,N/A,,Clear,160,2012-10-15 22:32:00
5:53 PM,64.4,35.6,34,29.79,10.0,SSE,10.4,-,N/A,,Clear,160,2012-10-15 22:53:00
6:13 PM,64.4,37.4,37,29.78,10.0,SSE,9.2,-,N/A,,Clear,160,2012-10-15 23:13:00
6:32 PM,62.6,37.4,39,29.78,10.0,SSE,9.2,-,N/A,,Clear,160,2012-10-15 23:32:00
6:53 PM,62.6,37.4,39,29.77,10.0,SSE,9.2,-,N/A,,Clear,150,2012-10-15 23:53:00
7:13 PM,60.8,37.4,42,29.77,10.0,SSE,9.2,-,N/A,,Clear,150,2012-10-16 00:13:00
7:32 PM,59.0,37.4,45,29.77,10.0,SSE,10.4,-,N/A,,Clear,150,2012-10-16 00:32:00
7:53 PM,59.0,39.2,48,29.77,10.0,SSE,9.2,-,N/A,,Clear,160,2012-10-16 00:53:00
8:13 PM,59.0,39.2,48,29.77,10.0,SSE,10.4,-,N/A,,Clear,160,2012-10-16 01:13:00
8:32 PM,60.8,41.0,48,29.76,10.0,SSE,10.4,18.4,N/A,,Clear,160,2012-10-16 01:32:00
8:53 PM,60.8,41.0,48,29.75,10.0,SSE,15.0,19.6,N/A,,Clear,160,2012-10-16 01:53:00
9:13 PM,59.0,41.0,51,29.75,10.0,SSE,16.1,19.6,N/A,,Clear,160,2012-10-16 02:13:00
9:32 PM,59.0,42.8,55,29.74,10.0,SSE,15.0,-,N/A,,Clear,160,2012-10-16 02:32:00
9:53 PM,59.0,41.0,51,29.74,10.0,SSE,12.7,-,N/A,,Clear,160,2012-10-16 02:53:00
10:13 PM,57.2,42.8,59,29.73,10.0,SSE,11.5,-,N/A,,Clear,160,2012-10-16 03:13:00
10:32 PM,57.2,42.8,59,29.73,10.0,SSE,12.7,18.4,N/A,,Clear,160,2012-10-16 03:32:00
10:53 PM,57.2,42.8,59,29.72,10.0,South,10.4,-,N/A,,Clear,170,2012-10-16 03:53:00
11:12 PM,57.2,42.8,59,29.72,10.0,South,10.4,-,N/A,,Clear,170,2012-10-16 04:12:00
11:33 PM,57.2,42.8,59,29.71,10.0,South,12.7,16.1,N/A,,Clear,170,2012-10-16 04:33:00
11:53 PM,57.2,42.8,59,29.70,10.0,South,16.1,20.7,N/A,,Clear,170,2012-10-16 04:53:00